Time,TemperatureF,DewpointF,PressureIn,WindDirection,WindDirectionDegrees,WindSpeedMPH,WindSpeedGustMPH,Humidity,HourlyPrecipIn,Conditions,Clouds,dailyrainin,SoftwareType,DateUTC
2013-11-06 00:04:00,43.3,2.6,30.29,SW,228,6.0,6.0,18,0.00,,,0.00,Wunderground v.1.15,2013-11-06 08:04:00,
2013-11-06 00:09:00,43.0,2.3,30.28,SW,226,6.0,7.0,18,0.00,,,0.00,Wunderground v.1.15,2013-11-06 08:09:00,
2013-11-06 00:14:00,43.1,2.4,30.29,SW,232,6.0,6.0,18,0.00,,,0.00,Wunderground v.1.15,2013-11-06 08:14:00,
2013-11-06 00:19:00,42.8,2.1,30.29,SW,232,6.0,7.0,18,0.00,,,0.00,Wunderground v.1.15,2013-11-06 08:19:00,
2013-11-06 00:25:00,42.7,2.1,30.29,SW,229,6.0,7.0,18,0.00,,,0.00,Wunderground v.1.15,2013-11-06 08:25:00,
2013-11-06 00:31:00,42.9,2.2,30.29,SW,236,5.0,5.0,18,0.00,,,0.00,Wunderground v.1.15,2013-11-06 08:31:00,
2013-11-06 00:37:00,43.2,2.5,30.29,SW,232,5.0,5.0,18,0.00,,,0.00,Wunderground v.1.15,2013-11-06 08:37:00,
2013-11-06 00:42:00,43.2,3.6,30.29,SW,226,5.0,6.0,19,0.00,,,0.00,Wunderground v.1.15,2013-11-06 08:42:00,
2013-11-06 00:47:00,42.9,3.4,30.29,SW,226,5.0,6.0,19,0.00,,,0.00,Wunderground v.1.15,2013-11-06 08:47:00,
2013-11-06 00:53:00,43.2,3.6,30.29,WSW,239,5.0,5.0,19,0.00,,,0.00,Wunderground v.1.15,2013-11-06 08:53:00,
2013-11-06 00:58:00,43.3,3.7,30.30,SW,225,5.0,5.0,19,0.00,,,0.00,Wunderground v.1.15,2013-11-06 08:58:00,
2013-11-06 01:04:00,43.7,4.1,30.30,SW,219,4.0,5.0,19,0.00,,,0.00,Wunderground v.1.15,2013-11-06 09:04:00,
2013-11-06 01:09:00,43.8,4.1,30.30,SW,229,4.0,5.0,19,0.00,,,0.00,Wunderground v.1.15,2013-11-06 09:09:00,
2013-11-06 01:14:00,44.1,4.4,30.30,SW,232,4.0,4.0,19,0.00,,,0.00,Wunderground v.1.15,2013-11-06 09:14:00,
2013-11-06 01:19:00,44.7,3.7,30.30,WSW,242,4.0,4.0,18,0.00,,,0.00,Wunderground v.1.15,2013-11-06 09:19:00,
2013-11-06 01:25:00,44.9,3.9,30.30,WSW,238,4.0,5.0,18,0.00,,,0.00,Wunderground v.1.15,2013-11-06 09:25:00,
2013-11-06 01:30:00,44.6,3.6,30.30,SW,232,4.0,5.0,18,0.00,,,0.00,Wunderground v.1.15,2013-11-06 09:30:00,
2013-11-06 01:35:00,44.2,4.5,30.30,SW,232,4.0,4.0,19,0.00,,,0.00,Wunderground v.1.15,2013-11-06 09:35:00,
2013-11-06 01:40:00,44.0,4.3,30.30,WSW,238,4.0,4.0,19,0.00,,,0.00,Wunderground v.1.15,2013-11-06 09:40:00,
2013-11-06 01:45:00,43.9,4.2,30.30,SW,229,4.0,5.0,19,0.00,,,0.00,Wunderground v.1.15,2013-11-06 09:45:00,
2013-11-06 01:50:00,43.7,4.1,30.30,SW,229,5.0,5.0,19,0.00,,,0.00,Wunderground v.1.15,2013-11-06 09:50:00,
2013-11-06 01:55:00,43.3,3.7,30.30,SW,225,5.0,5.0,19,0.00,,,0.00,Wunderground v.1.15,2013-11-06 09:55:00,
2013-11-06 02:01:00,43.0,3.5,30.30,SW,231,5.0,5.0,19,0.00,,,0.00,Wunderground v.1.15,2013-11-06 10:01:00,
2013-11-06 02:06:00,43.2,3.6,30.30,SW,228,5.0,5.0,19,0.00,,,0.00,Wunderground v.1.15,2013-11-06 10:06:00,
2013-11-06 02:11:00,43.5,3.9,30.30,SW,231,5.0,5.0,19,0.00,,,0.00,Wunderground v.1.15,2013-11-06 10:11:00,
2013-11-06 02:16:00,43.6,4.0,30.30,SW,214,5.0,5.0,19,0.00,,,0.00,Wunderground v.1.15,2013-11-06 10:16:00,
2013-11-06 02:21:00,43.5,5.0,30.30,SW,231,4.0,4.0,20,0.00,,,0.00,Wunderground v.1.15,2013-11-06 10:21:00,
2013-11-06 02:27:00,43.5,5.0,30.30,SW,231,5.0,6.0,20,0.00,,,0.00,Wunderground v.1.15,2013-11-06 10:27:00,
2013-11-06 02:32:00,43.4,4.9,30.30,SW,228,5.0,5.0,20,0.00,,,0.00,Wunderground v.1.15,2013-11-06 10:32:00,
2013-11-06 02:37:00,43.5,5.0,30.30,SW,224,5.0,5.0,20,0.00,,,0.00,Wunderground v.1.15,2013-11-06 10:37:00,
2013-11-06 02:42:00,43.5,5.0,30.30,SW,224,4.0,4.0,20,0.00,,,0.00,Wunderground v.1.15,2013-11-06 10:42:00,
2013-11-06 02:47:00,44.3,5.7,30.31,SW,226,4.0,5.0,20,0.00,,,0.00,Wunderground v.1.15,2013-11-06 10:47:00,
2013-11-06 02:53:00,44.4,5.8,30.31,SW,232,5.0,5.0,20,0.00,,,0.00,Wunderground v.1.15,2013-11-06 10:53:00,
2013-11-06 02:58:00,44.2,5.6,30.31,SW,231,5.0,6.0,20,0.00,,,0.00,Wunderground v.1.15,2013-11-06 10:58:00,
2013-11-06 03:04:00,43.6,6.2,30.31,SW,218,5.0,5.0,21,0.00,,,0.00,Wunderground v.1.15,2013-11-06 11:04:00,
2013-11-06 03:09:00,43.3,5.9,30.31,SW,232,5.0,5.0,21,0.00,,,0.00,Wunderground v.1.15,2013-11-06 11:09:00,
2013-11-06 03:15:00,43.7,6.2,30.31,SW,226,5.0,5.0,21,0.00,,,0.00,Wunderground v.1.15,2013-11-06 11:15:00,
2013-11-06 03:20:00,44.1,6.6,30.31,SW,215,5.0,5.0,21,0.00,,,0.00,Wunderground v.1.15,2013-11-06 11:20:00,
2013-11-06 03:25:00,43.8,6.3,30.31,SW,218,4.0,5.0,21,0.00,,,0.00,Wunderground v.1.15,2013-11-06 11:25:00,
2013-11-06 03:30:00,44.4,6.8,30.31,SSW,211,4.0,4.0,21,0.00,,,0.00,Wunderground v.1.15,2013-11-06 11:30:00,
2013-11-06 03:35:00,43.7,6.2,30.30,South,188,4.0,4.0,21,0.00,,,0.00,Wunderground v.1.15,2013-11-06 11:35:00,
2013-11-06 03:40:00,42.4,6.2,30.31,SSW,204,3.0,4.0,22,0.00,,,0.00,Wunderground v.1.15,2013-11-06 11:40:00,
2013-11-06 03:45:00,41.6,6.5,30.31,SSW,198,3.0,5.0,23,0.00,,,0.00,Wunderground v.1.15,2013-11-06 11:45:00,
2013-11-06 03:50:00,41.3,6.2,30.31,SSW,208,4.0,4.0,23,0.00,,,0.00,Wunderground v.1.15,2013-11-06 11:50:00,
2013-11-06 03:55:00,41.6,6.5,30.31,SSW,201,4.0,4.0,23,0.00,,,0.00,Wunderground v.1.15,2013-11-06 11:55:00,
2013-11-06 04:01:00,41.4,6.3,30.31,SSW,201,4.0,4.0,23,0.00,,,0.00,Wunderground v.1.15,2013-11-06 12:01:00,
2013-11-06 04:06:00,41.9,6.7,30.31,SSW,208,3.0,4.0,23,0.00,,,0.00,Wunderground v.1.15,2013-11-06 12:06:00,
2013-11-06 04:12:00,42.4,7.2,30.31,SSW,197,3.0,4.0,23,0.00,,,0.00,Wunderground v.1.15,2013-11-06 12:12:00,
2013-11-06 04:17:00,43.1,7.7,30.31,SSW,193,3.0,4.0,23,0.00,,,0.00,Wunderground v.1.15,2013-11-06 12:17:00,
2013-11-06 04:22:00,43.5,7.1,30.31,SW,214,3.0,3.0,22,0.00,,,0.00,Wunderground v.1.15,2013-11-06 12:22:00,
2013-11-06 04:27:00,44.2,7.7,30.31,SSE,147,3.0,3.0,22,0.00,,,0.00,Wunderground v.1.15,2013-11-06 12:27:00,
2013-11-06 04:33:00,44.7,7.1,30.31,SSW,205,3.0,4.0,21,0.00,,,0.00,Wunderground v.1.15,2013-11-06 12:33:00,
2013-11-06 04:39:00,43.5,7.1,30.31,SSW,193,3.0,4.0,22,0.00,,,0.00,Wunderground v.1.15,2013-11-06 12:39:00,
2013-11-06 04:44:00,43.3,7.9,30.32,SSW,201,4.0,5.0,23,0.00,,,0.00,Wunderground v.1.15,2013-11-06 12:44:00,
2013-11-06 04:49:00,43.4,8.0,30.31,SSW,198,4.0,5.0,23,0.00,,,0.00,Wunderground v.1.15,2013-11-06 12:49:00,
2013-11-06 04:54:00,44.3,7.8,30.31,South,187,4.0,4.0,22,0.00,,,0.00,Wunderground v.1.15,2013-11-06 12:54:00,
2013-11-06 05:00:00,43.5,7.1,30.31,SSW,205,4.0,4.0,22,0.00,,,0.00,Wunderground v.1.15,2013-11-06 13:00:00,
2013-11-06 05:05:00,43.5,7.1,30.32,SSW,208,4.0,4.0,22,0.00,,,0.00,Wunderground v.1.15,2013-11-06 13:05:00,
2013-11-06 05:10:00,43.8,7.4,30.32,SSW,200,4.0,4.0,22,0.00,,,0.00,Wunderground v.1.15,2013-11-06 13:10:00,
2013-11-06 05:15:00,44.1,7.6,30.32,SSW,201,4.0,5.0,22,0.00,,,0.00,Wunderground v.1.15,2013-11-06 13:15:00,
2013-11-06 05:20:00,43.1,6.8,30.32,SSW,203,4.0,4.0,22,0.00,,,0.00,Wunderground v.1.15,2013-11-06 13:20:00,
2013-11-06 05:26:00,43.3,7.9,30.32,SW,215,4.0,4.0,23,0.00,,,0.00,Wunderground v.1.15,2013-11-06 13:26:00,
2013-11-06 05:31:00,43.9,7.4,30.32,SW,218,3.0,3.0,22,0.00,,,0.00,Wunderground v.1.15,2013-11-06 13:31:00,
2013-11-06 05:36:00,45.3,8.6,30.32,SW,221,3.0,3.0,22,0.00,,,0.00,Wunderground v.1.15,2013-11-06 13:36:00,
2013-11-06 05:41:00,46.5,8.6,30.32,SW,218,3.0,3.0,21,0.00,,,0.00,Wunderground v.1.15,2013-11-06 13:41:00,
2013-11-06 05:46:00,46.7,7.7,30.33,SW,224,2.0,3.0,20,0.00,,,0.00,Wunderground v.1.15,2013-11-06 13:46:00,
2013-11-06 05:51:00,47.2,8.1,30.33,SSW,208,2.0,2.0,20,0.00,,,0.00,Wunderground v.1.15,2013-11-06 13:51:00,
2013-11-06 05:57:00,47.0,7.9,30.33,South,172,1.0,2.0,20,0.00,,,0.00,Wunderground v.1.15,2013-11-06 13:57:00,
2013-11-06 06:03:00,46.5,8.6,30.33,SW,215,1.0,1.0,21,0.00,,,0.00,Wunderground v.1.15,2013-11-06 14:03:00,
2013-11-06 06:08:00,46.6,8.7,30.33,SW,228,1.0,1.0,21,0.00,,,0.00,Wunderground v.1.15,2013-11-06 14:08:00,
2013-11-06 06:13:00,46.5,8.6,30.33,SW,215,1.0,2.0,21,0.00,,,0.00,Wunderground v.1.15,2013-11-06 14:13:00,
2013-11-06 06:18:00,46.0,8.2,30.33,SW,224,2.0,3.0,21,0.00,,,0.00,Wunderground v.1.15,2013-11-06 14:18:00,
2013-11-06 06:24:00,45.1,8.5,30.34,SW,232,3.0,4.0,22,0.00,,,0.00,Wunderground v.1.15,2013-11-06 14:24:00,
2013-11-06 06:29:00,45.5,7.8,30.34,SW,232,4.0,4.0,21,0.00,,,0.00,Wunderground v.1.15,2013-11-06 14:29:00,
2013-11-06 06:34:00,45.4,7.7,30.34,SW,228,4.0,5.0,21,0.00,,,0.00,Wunderground v.1.15,2013-11-06 14:34:00,
2013-11-06 06:39:00,44.7,8.1,30.34,SSW,205,4.0,5.0,22,0.00,,,0.00,Wunderground v.1.15,2013-11-06 14:39:00,
2013-11-06 06:45:00,45.0,8.4,30.35,SW,224,3.0,4.0,22,0.00,,,0.00,Wunderground v.1.15,2013-11-06 14:45:00,
2013-11-06 06:51:00,46.3,8.4,30.35,SW,227,3.0,4.0,21,0.00,,,0.00,Wunderground v.1.15,2013-11-06 14:51:00,
2013-11-06 06:56:00,47.1,9.1,30.35,SW,236,4.0,4.0,21,0.00,,,0.00,Wunderground v.1.15,2013-11-06 14:56:00,
2013-11-06 07:01:00,47.8,9.7,30.35,SW,235,4.0,4.0,21,0.00,,,0.00,Wunderground v.1.15,2013-11-06 15:01:00,
2013-11-06 07:06:00,48.3,9.0,30.35,WSW,245,3.0,4.0,20,0.00,,,0.00,Wunderground v.1.15,2013-11-06 15:06:00,
2013-11-06 07:12:00,48.7,9.4,30.36,SW,233,3.0,3.0,20,0.00,,,0.00,Wunderground v.1.15,2013-11-06 15:12:00,
2013-11-06 07:17:00,49.0,10.7,30.36,WSW,242,2.0,3.0,21,0.00,,,0.00,Wunderground v.1.15,2013-11-06 15:17:00,
2013-11-06 07:22:00,49.4,11.0,30.36,WSW,240,2.0,2.0,21,0.00,,,0.00,Wunderground v.1.15,2013-11-06 15:22:00,
2013-11-06 07:27:00,49.9,11.4,30.35,WSW,240,1.0,2.0,21,0.00,,,0.00,Wunderground v.1.15,2013-11-06 15:27:00,
2013-11-06 07:32:00,50.6,10.9,30.35,WSW,251,1.0,2.0,20,0.00,,,0.00,Wunderground v.1.15,2013-11-06 15:32:00,
2013-11-06 07:37:00,51.3,10.4,30.36,WSW,251,1.0,2.0,19,0.00,,,0.00,Wunderground v.1.15,2013-11-06 15:37:00,
2013-11-06 07:43:00,51.8,10.8,30.36,West,274,1.0,2.0,19,0.00,,,0.00,Wunderground v.1.15,2013-11-06 15:43:00,
2013-11-06 07:48:00,52.1,11.0,30.36,West,264,2.0,2.0,19,0.00,,,0.00,Wunderground v.1.15,2013-11-06 15:48:00,
2013-11-06 07:53:00,52.3,10.0,30.36,West,279,2.0,2.0,18,0.00,,,0.00,Wunderground v.1.15,2013-11-06 15:53:00,
2013-11-06 07:58:00,52.4,10.1,30.37,WNW,295,2.0,2.0,18,0.00,,,0.00,Wunderground v.1.15,2013-11-06 15:58:00,
2013-11-06 08:03:00,52.6,10.2,30.37,NW,312,2.0,2.0,18,0.00,,,0.00,Wunderground v.1.15,2013-11-06 16:03:00,
2013-11-06 08:08:00,52.8,10.4,30.37,WNW,285,1.0,3.0,18,0.00,,,0.00,Wunderground v.1.15,2013-11-06 16:08:00,
2013-11-06 08:13:00,53.0,9.3,30.37,NW,308,1.0,2.0,17,0.00,,,0.00,Wunderground v.1.15,2013-11-06 16:13:00,
2013-11-06 08:18:00,53.6,9.8,30.37,North,5,1.0,3.0,17,0.00,,,0.00,Wunderground v.1.15,2013-11-06 16:18:00,
2013-11-06 08:24:00,53.7,9.8,30.37,North,356,2.0,3.0,17,0.00,,,0.00,Wunderground v.1.15,2013-11-06 16:24:00,
2013-11-06 08:29:00,53.8,9.9,30.37,NNE,27,2.0,3.0,17,0.00,,,0.00,Wunderground v.1.15,2013-11-06 16:29:00,
2013-11-06 08:34:00,53.8,9.9,30.37,NNE,22,2.0,3.0,17,0.00,,,0.00,Wunderground v.1.15,2013-11-06 16:34:00,
2013-11-06 08:40:00,54.0,8.7,30.37,North,352,2.0,3.0,16,0.00,,,0.00,Wunderground v.1.15,2013-11-06 16:40:00,
2013-11-06 08:45:00,54.3,9.0,30.37,NNE,30,2.0,3.0,16,0.00,,,0.00,Wunderground v.1.15,2013-11-06 16:45:00,
2013-11-06 08:50:00,54.3,9.0,30.37,NW,312,2.0,2.0,16,0.00,,,0.00,Wunderground v.1.15,2013-11-06 16:50:00,
2013-11-06 08:55:00,54.4,9.1,30.37,NNW,343,3.0,4.0,16,0.00,,,0.00,Wunderground v.1.15,2013-11-06 16:55:00,
2013-11-06 09:00:00,54.6,9.2,30.37,NW,323,3.0,3.0,16,0.00,,,0.00,Wunderground v.1.15,2013-11-06 17:00:00,
2013-11-06 09:06:00,55.1,8.2,30.37,East,100,2.0,3.0,15,0.00,,,0.00,Wunderground v.1.15,2013-11-06 17:06:00,
2013-11-06 09:11:00,55.4,8.4,30.37,NE,35,2.0,3.0,15,0.00,,,0.00,Wunderground v.1.15,2013-11-06 17:11:00,
2013-11-06 09:16:00,55.0,8.1,30.37,North,352,3.0,6.0,15,0.00,,,0.00,Wunderground v.1.15,2013-11-06 17:16:00,
2013-11-06 09:21:00,54.9,8.0,30.37,WNW,293,3.0,3.0,15,0.00,,,0.00,Wunderground v.1.15,2013-11-06 17:21:00,
2013-11-06 09:27:00,55.0,8.1,30.37,WNW,285,2.0,3.0,15,0.00,,,0.00,Wunderground v.1.15,2013-11-06 17:27:00,
2013-11-06 09:32:00,55.4,8.4,30.37,ENE,72,2.0,2.0,15,0.00,,,0.00,Wunderground v.1.15,2013-11-06 17:32:00,
2013-11-06 09:38:00,55.7,7.1,30.37,NNW,338,2.0,5.0,14,0.00,,,0.00,Wunderground v.1.15,2013-11-06 17:38:00,
2013-11-06 09:43:00,55.9,8.8,30.37,NNE,20,2.0,3.0,15,0.00,,,0.00,Wunderground v.1.15,2013-11-06 17:43:00,
2013-11-06 09:48:00,56.2,5.9,30.37,NNE,25,3.0,8.0,13,0.00,,,0.00,Wunderground v.1.15,2013-11-06 17:48:00,
2013-11-06 09:54:00,55.8,7.2,30.37,WNW,302,4.0,4.0,14,0.00,,,0.00,Wunderground v.1.15,2013-11-06 17:54:00,
2013-11-06 09:59:00,56.3,7.6,30.37,NE,54,3.0,6.0,14,0.00,,,0.00,Wunderground v.1.15,2013-11-06 17:59:00,
2013-11-06 10:04:00,56.3,6.0,30.37,NNW,342,4.0,7.0,13,0.00,,,0.00,Wunderground v.1.15,2013-11-06 18:04:00,
2013-11-06 10:09:00,56.2,7.5,30.36,NNW,344,4.0,7.0,14,0.00,,,0.00,Wunderground v.1.15,2013-11-06 18:09:00,
2013-11-06 10:15:00,56.6,7.9,30.36,NE,34,4.0,8.0,14,0.00,,,0.00,Wunderground v.1.15,2013-11-06 18:15:00,
2013-11-06 10:21:00,56.6,6.2,30.37,NE,49,4.0,4.0,13,0.00,,,0.00,Wunderground v.1.15,2013-11-06 18:21:00,
2013-11-06 10:26:00,57.0,6.5,30.36,NNW,348,3.0,4.0,13,0.00,,,0.00,Wunderground v.1.15,2013-11-06 18:26:00,
2013-11-06 10:31:00,57.1,6.6,30.36,NW,311,3.0,5.0,13,0.00,,,0.00,Wunderground v.1.15,2013-11-06 18:31:00,
2013-11-06 10:36:00,57.4,5.1,30.36,NNE,13,3.0,5.0,12,0.00,,,0.00,Wunderground v.1.15,2013-11-06 18:36:00,
2013-11-06 10:42:00,57.5,6.9,30.36,NW,311,2.0,6.0,13,0.00,,,0.00,Wunderground v.1.15,2013-11-06 18:42:00,
2013-11-06 10:47:00,57.6,7.0,30.36,NE,36,2.0,6.0,13,0.00,,,0.00,Wunderground v.1.15,2013-11-06 18:47:00,
2013-11-06 10:53:00,57.8,7.2,30.36,NNW,328,3.0,6.0,13,0.00,,,0.00,Wunderground v.1.15,2013-11-06 18:53:00,
2013-11-06 10:58:00,57.7,5.3,30.36,West,270,5.0,6.0,12,0.00,,,0.00,Wunderground v.1.15,2013-11-06 18:58:00,
2013-11-06 11:04:00,57.9,5.5,30.35,NE,54,3.0,6.0,12,0.00,,,0.00,Wunderground v.1.15,2013-11-06 19:04:00,
2013-11-06 11:09:00,57.9,7.3,30.35,NE,37,3.0,6.0,13,0.00,,,0.00,Wunderground v.1.15,2013-11-06 19:09:00,
2013-11-06 11:14:00,58.4,5.9,30.35,East,88,4.0,5.0,12,0.00,,,0.00,Wunderground v.1.15,2013-11-06 19:14:00,
2013-11-06 11:19:00,58.4,5.9,30.35,NNW,345,4.0,8.0,12,0.00,,,0.00,Wunderground v.1.15,2013-11-06 19:19:00,
2013-11-06 11:24:00,58.5,6.0,30.34,WNW,290,4.0,7.0,12,0.00,,,0.00,Wunderground v.1.15,2013-11-06 19:24:00,
2013-11-06 11:30:00,58.8,6.2,30.34,West,263,4.0,4.0,12,0.00,,,0.00,Wunderground v.1.15,2013-11-06 19:30:00,
2013-11-06 11:35:00,58.5,6.0,30.34,North,5,4.0,5.0,12,0.00,,,0.00,Wunderground v.1.15,2013-11-06 19:35:00,
2013-11-06 11:40:00,58.4,5.9,30.33,NW,307,4.0,6.0,12,0.00,,,0.00,Wunderground v.1.15,2013-11-06 19:40:00,
2013-11-06 11:45:00,58.7,6.1,30.33,NNW,340,6.0,9.0,12,0.00,,,0.00,Wunderground v.1.15,2013-11-06 19:45:00,
2013-11-06 11:50:00,58.7,6.1,30.33,NE,44,5.0,5.0,12,0.00,,,0.00,Wunderground v.1.15,2013-11-06 19:50:00,
2013-11-06 11:56:00,58.8,8.0,30.33,NW,318,5.0,7.0,13,0.00,,,0.00,Wunderground v.1.15,2013-11-06 19:56:00,
2013-11-06 12:01:00,58.8,8.0,30.33,West,265,5.0,5.0,13,0.00,,,0.00,Wunderground v.1.15,2013-11-06 20:01:00,
2013-11-06 12:06:00,59.0,6.4,30.33,North,3,5.0,8.0,12,0.00,,,0.00,Wunderground v.1.15,2013-11-06 20:06:00,
2013-11-06 12:11:00,59.0,6.4,30.33,NNE,13,5.0,6.0,12,0.00,,,0.00,Wunderground v.1.15,2013-11-06 20:11:00,
2013-11-06 12:16:00,59.0,8.1,30.32,North,11,5.0,7.0,13,0.00,,,0.00,Wunderground v.1.15,2013-11-06 20:16:00,
2013-11-06 12:21:00,59.3,6.6,30.32,NW,316,5.0,6.0,12,0.00,,,0.00,Wunderground v.1.15,2013-11-06 20:21:00,
2013-11-06 12:27:00,59.6,6.8,30.32,WNW,298,5.0,7.0,12,0.00,,,0.00,Wunderground v.1.15,2013-11-06 20:27:00,
2013-11-06 12:32:00,59.9,7.1,30.31,North,350,5.0,5.0,12,0.00,,,0.00,Wunderground v.1.15,2013-11-06 20:32:00,
2013-11-06 12:37:00,59.9,7.1,30.31,NNE,33,4.0,8.0,12,0.00,,,0.00,Wunderground v.1.15,2013-11-06 20:37:00,
2013-11-06 12:42:00,59.7,6.9,30.31,North,352,5.0,9.0,12,0.00,,,0.00,Wunderground v.1.15,2013-11-06 20:42:00,
2013-11-06 12:47:00,59.9,7.1,30.31,North,1,6.0,9.0,12,0.00,,,0.00,Wunderground v.1.15,2013-11-06 20:47:00,
2013-11-06 12:53:00,60.2,7.3,30.30,NE,55,6.0,7.0,12,0.00,,,0.00,Wunderground v.1.15,2013-11-06 20:53:00,
2013-11-06 12:58:00,60.0,7.2,30.30,NNE,20,5.0,7.0,12,0.00,,,0.00,Wunderground v.1.15,2013-11-06 20:58:00,
2013-11-06 13:03:00,60.0,7.2,30.30,NW,311,4.0,7.0,12,0.00,,,0.00,Wunderground v.1.15,2013-11-06 21:03:00,
2013-11-06 13:09:00,60.1,9.0,30.30,NE,36,6.0,9.0,13,0.00,,,0.00,Wunderground v.1.15,2013-11-06 21:09:00,
2013-11-06 13:14:00,60.5,7.5,30.30,NNE,23,6.0,8.0,12,0.00,,,0.00,Wunderground v.1.15,2013-11-06 21:14:00,
2013-11-06 13:19:00,60.6,7.6,30.29,WNW,293,5.0,9.0,12,0.00,,,0.00,Wunderground v.1.15,2013-11-06 21:19:00,
2013-11-06 13:25:00,60.8,7.8,30.29,NW,314,5.0,8.0,12,0.00,,,0.00,Wunderground v.1.15,2013-11-06 21:25:00,
2013-11-06 13:30:00,60.8,7.8,30.29,NW,315,4.0,4.0,12,0.00,,,0.00,Wunderground v.1.15,2013-11-06 21:30:00,
2013-11-06 13:35:00,61.0,7.9,30.29,NNE,22,3.0,6.0,12,0.00,,,0.00,Wunderground v.1.15,2013-11-06 21:35:00,
2013-11-06 13:41:00,61.0,7.9,30.29,NW,319,5.0,5.0,12,0.00,,,0.00,Wunderground v.1.15,2013-11-06 21:41:00,
2013-11-06 13:46:00,60.7,7.7,30.29,NNE,23,5.0,5.0,12,0.00,,,0.00,Wunderground v.1.15,2013-11-06 21:46:00,
2013-11-06 13:51:00,60.8,7.8,30.29,NNW,330,4.0,8.0,12,0.00,,,0.00,Wunderground v.1.15,2013-11-06 21:51:00,
2013-11-06 13:56:00,60.7,7.7,30.29,WNW,299,5.0,8.0,12,0.00,,,0.00,Wunderground v.1.15,2013-11-06 21:56:00,
2013-11-06 14:01:00,60.8,7.8,30.28,NNW,330,5.0,7.0,12,0.00,,,0.00,Wunderground v.1.15,2013-11-06 22:01:00,
2013-11-06 14:07:00,61.1,8.0,30.28,NE,43,4.0,8.0,12,0.00,,,0.00,Wunderground v.1.15,2013-11-06 22:07:00,
2013-11-06 14:12:00,61.1,8.0,30.28,WNW,293,5.0,8.0,12,0.00,,,0.00,Wunderground v.1.15,2013-11-06 22:12:00,
2013-11-06 14:17:00,61.1,6.1,30.28,NW,312,6.0,8.0,11,0.00,,,0.00,Wunderground v.1.15,2013-11-06 22:17:00,
2013-11-06 14:22:00,61.2,6.2,30.28,NNW,335,6.0,7.0,11,0.00,,,0.00,Wunderground v.1.15,2013-11-06 22:22:00,
2013-11-06 14:27:00,61.1,6.1,30.28,NW,324,6.0,7.0,11,0.00,,,0.00,Wunderground v.1.15,2013-11-06 22:27:00,
2013-11-06 14:33:00,61.1,8.0,30.28,NNE,23,5.0,6.0,12,0.00,,,0.00,Wunderground v.1.15,2013-11-06 22:33:00,
2013-11-06 14:38:00,61.5,6.4,30.28,North,6,4.0,7.0,11,0.00,,,0.00,Wunderground v.1.15,2013-11-06 22:38:00,
2013-11-06 14:44:00,61.7,6.6,30.28,NNW,334,5.0,6.0,11,0.00,,,0.00,Wunderground v.1.15,2013-11-06 22:44:00,
2013-11-06 14:49:00,61.6,6.5,30.28,NW,304,5.0,7.0,11,0.00,,,0.00,Wunderground v.1.15,2013-11-06 22:49:00,
2013-11-06 14:55:00,61.6,6.5,30.28,WNW,302,5.0,5.0,11,0.00,,,0.00,Wunderground v.1.15,2013-11-06 22:55:00,
2013-11-06 15:00:00,61.8,6.6,30.27,NW,325,5.0,5.0,11,0.00,,,0.00,Wunderground v.1.15,2013-11-06 23:00:00,
2013-11-06 15:05:00,61.5,6.4,30.27,NW,322,6.0,6.0,11,0.00,,,0.00,Wunderground v.1.15,2013-11-06 23:05:00,
2013-11-06 15:10:00,61.3,6.3,30.27,WNW,294,5.0,5.0,11,0.00,,,0.00,Wunderground v.1.15,2013-11-06 23:10:00,
2013-11-06 15:16:00,61.4,6.3,30.27,NNE,25,4.0,6.0,11,0.00,,,0.00,Wunderground v.1.15,2013-11-06 23:16:00,
2013-11-06 15:21:00,61.8,6.6,30.27,NNW,332,3.0,3.0,11,0.00,,,0.00,Wunderground v.1.15,2013-11-06 23:21:00,
2013-11-06 15:26:00,62.0,4.7,30.27,North,354,4.0,6.0,10,0.00,,,0.00,Wunderground v.1.15,2013-11-06 23:26:00,
2013-11-06 15:31:00,62.0,4.7,30.27,NW,317,4.0,4.0,10,0.00,,,0.00,Wunderground v.1.15,2013-11-06 23:31:00,
2013-11-06 15:36:00,62.1,4.8,30.27,WNW,290,4.0,4.0,10,0.00,,,0.00,Wunderground v.1.15,2013-11-06 23:36:00,
2013-11-06 15:41:00,62.2,4.9,30.27,NW,323,4.0,4.0,10,0.00,,,0.00,Wunderground v.1.15,2013-11-06 23:41:00,
2013-11-06 15:47:00,62.0,4.7,30.27,North,11,5.0,6.0,10,0.00,,,0.00,Wunderground v.1.15,2013-11-06 23:47:00,
2013-11-06 15:52:00,61.7,4.5,30.27,NW,313,5.0,6.0,10,0.00,,,0.00,Wunderground v.1.15,2013-11-06 23:52:00,
2013-11-06 15:57:00,61.6,4.4,30.27,North,11,5.0,6.0,10,0.00,,,0.00,Wunderground v.1.15,2013-11-06 23:57:00,
2013-11-06 16:02:00,61.4,4.2,30.27,NNE,25,5.0,6.0,10,0.00,,,0.00,Wunderground v.1.15,2013-11-07 00:02:00,
2013-11-06 16:08:00,61.2,4.1,30.27,NNW,327,5.0,7.0,10,0.00,,,0.00,Wunderground v.1.15,2013-11-07 00:08:00,
2013-11-06 16:13:00,61.1,4.0,30.27,NNW,348,5.0,8.0,10,0.00,,,0.00,Wunderground v.1.15,2013-11-07 00:13:00,
2013-11-06 16:18:00,61.0,3.9,30.27,NW,324,5.0,8.0,10,0.00,,,0.00,Wunderground v.1.15,2013-11-07 00:18:00,
2013-11-06 16:23:00,60.8,3.8,30.26,NW,324,5.0,7.0,10,0.00,,,0.00,Wunderground v.1.15,2013-11-07 00:23:00,
2013-11-06 16:29:00,60.6,3.6,30.26,NW,322,5.0,7.0,10,0.00,,,0.00,Wunderground v.1.15,2013-11-07 00:29:00,
2013-11-06 16:34:00,60.2,3.3,30.26,NNW,332,5.0,5.0,10,0.00,,,0.00,Wunderground v.1.15,2013-11-07 00:34:00,
2013-11-06 16:39:00,59.7,2.9,30.26,WNW,297,4.0,5.0,10,0.00,,,0.00,Wunderground v.1.15,2013-11-07 00:39:00,
2013-11-06 16:46:00,59.1,4.5,30.27,NW,313,3.0,4.0,11,0.00,,,0.00,Wunderground v.1.15,2013-11-07 00:46:00,
2013-11-06 16:51:00,58.8,4.3,30.27,West,281,3.0,3.0,11,0.00,,,0.00,Wunderground v.1.15,2013-11-07 00:51:00,
2013-11-06 16:56:00,58.4,4.0,30.27,WNW,289,3.0,3.0,11,0.00,,,0.00,Wunderground v.1.15,2013-11-07 00:56:00,
2013-11-06 17:01:00,58.0,3.7,30.26,WNW,289,2.0,2.0,11,0.00,,,0.00,Wunderground v.1.15,2013-11-07 01:01:00,
2013-11-06 17:06:00,57.7,3.4,30.27,WNW,285,2.0,2.0,11,0.00,,,0.00,Wunderground v.1.15,2013-11-07 01:06:00,
2013-11-06 17:12:00,57.1,4.9,30.27,West,276,2.0,2.0,12,0.00,,,0.00,Wunderground v.1.15,2013-11-07 01:12:00,
2013-11-06 17:18:00,56.5,4.4,30.27,WSW,255,2.0,2.0,12,0.00,,,0.00,Wunderground v.1.15,2013-11-07 01:18:00,
2013-11-06 17:23:00,56.3,4.2,30.27,WSW,257,2.0,3.0,12,0.00,,,0.00,Wunderground v.1.15,2013-11-07 01:23:00,
2013-11-06 17:28:00,56.3,4.2,30.27,WSW,256,3.0,3.0,12,0.00,,,0.00,Wunderground v.1.15,2013-11-07 01:28:00,
2013-11-06 17:33:00,56.1,4.1,30.27,West,270,3.0,3.0,12,0.00,,,0.00,Wunderground v.1.15,2013-11-07 01:33:00,
2013-11-06 17:39:00,55.8,3.8,30.28,SW,233,3.0,4.0,12,0.00,,,0.00,Wunderground v.1.15,2013-11-07 01:39:00,
2013-11-06 17:44:00,54.6,4.6,30.28,SW,231,4.0,5.0,13,0.00,,,0.00,Wunderground v.1.15,2013-11-07 01:44:00,
2013-11-06 17:49:00,54.3,4.4,30.28,WSW,245,4.0,5.0,13,0.00,,,0.00,Wunderground v.1.15,2013-11-07 01:49:00,
2013-11-06 17:54:00,54.2,4.3,30.28,WSW,241,4.0,5.0,13,0.00,,,0.00,Wunderground v.1.15,2013-11-07 01:54:00,
2013-11-06 17:59:00,53.7,3.9,30.28,WSW,241,4.0,6.0,13,0.00,,,0.00,Wunderground v.1.15,2013-11-07 01:59:00,
2013-11-06 18:05:00,53.3,3.6,30.29,WSW,250,5.0,5.0,13,0.00,,,0.00,Wunderground v.1.15,2013-11-07 02:05:00,
2013-11-06 18:10:00,53.1,3.5,30.29,SW,236,4.0,5.0,13,0.00,,,0.00,Wunderground v.1.15,2013-11-07 02:10:00,
2013-11-06 18:15:00,52.6,4.7,30.29,SW,235,5.0,5.0,14,0.00,,,0.00,Wunderground v.1.15,2013-11-07 02:15:00,
2013-11-06 18:20:00,52.4,4.5,30.29,WSW,240,5.0,5.0,14,0.00,,,0.00,Wunderground v.1.15,2013-11-07 02:20:00,
2013-11-06 18:26:00,52.8,3.2,30.29,SW,231,5.0,5.0,13,0.00,,,0.00,Wunderground v.1.15,2013-11-07 02:26:00,
2013-11-06 18:31:00,52.9,3.3,30.29,SW,215,4.0,4.0,13,0.00,,,0.00,Wunderground v.1.15,2013-11-07 02:31:00,
2013-11-06 18:36:00,52.0,4.2,30.29,SW,217,5.0,6.0,14,0.00,,,0.00,Wunderground v.1.15,2013-11-07 02:36:00,
2013-11-06 18:41:00,51.4,3.7,30.29,SW,218,5.0,5.0,14,0.00,,,0.00,Wunderground v.1.15,2013-11-07 02:41:00,
2013-11-06 18:46:00,51.2,3.5,30.29,SW,232,4.0,5.0,14,0.00,,,0.00,Wunderground v.1.15,2013-11-07 02:46:00,
2013-11-06 18:51:00,51.1,3.5,30.29,SW,215,4.0,4.0,14,0.00,,,0.00,Wunderground v.1.15,2013-11-07 02:51:00,
2013-11-06 18:57:00,50.8,3.2,30.29,SW,221,4.0,4.0,14,0.00,,,0.00,Wunderground v.1.15,2013-11-07 02:57:00,
2013-11-06 19:02:00,50.6,3.1,30.29,SSW,212,3.0,4.0,14,0.00,,,0.00,Wunderground v.1.15,2013-11-07 03:02:00,
2013-11-06 19:08:00,50.3,2.8,30.29,SW,219,4.0,5.0,14,0.00,,,0.00,Wunderground v.1.15,2013-11-07 03:08:00,
2013-11-06 19:13:00,50.8,3.2,30.29,SSW,204,4.0,4.0,14,0.00,,,0.00,Wunderground v.1.15,2013-11-07 03:13:00,
2013-11-06 19:19:00,50.9,3.3,30.28,SSW,195,4.0,4.0,14,0.00,,,0.00,Wunderground v.1.15,2013-11-07 03:19:00,
2013-11-06 19:24:00,50.8,3.2,30.29,SSW,207,4.0,4.0,14,0.00,,,0.00,Wunderground v.1.15,2013-11-07 03:24:00,
2013-11-06 19:29:00,50.8,3.2,30.29,SW,217,4.0,4.0,14,0.00,,,0.00,Wunderground v.1.15,2013-11-07 03:29:00,
2013-11-06 19:34:00,51.5,3.8,30.29,SW,214,4.0,5.0,14,0.00,,,0.00,Wunderground v.1.15,2013-11-07 03:34:00,
2013-11-06 19:39:00,51.1,1.9,30.29,South,186,4.0,5.0,13,0.00,,,0.00,Wunderground v.1.15,2013-11-07 03:39:00,
2013-11-06 19:45:00,50.6,3.1,30.29,SSW,193,4.0,5.0,14,0.00,,,0.00,Wunderground v.1.15,2013-11-07 03:45:00,
2013-11-06 19:51:00,51.2,1.9,30.29,SSW,207,4.0,5.0,13,0.00,,,0.00,Wunderground v.1.15,2013-11-07 03:51:00,
2013-11-06 19:56:00,52.5,1.2,30.29,SSW,201,4.0,5.0,12,0.00,,,0.00,Wunderground v.1.15,2013-11-07 03:56:00,
2013-11-06 20:01:00,53.5,2.0,30.29,South,184,3.0,3.0,12,0.00,,,0.00,Wunderground v.1.15,2013-11-07 04:01:00,
2013-11-06 20:07:00,54.1,0.6,30.29,SSW,207,3.0,3.0,11,0.00,,,0.00,Wunderground v.1.15,2013-11-07 04:07:00,
2013-11-06 20:12:00,54.5,1.0,30.29,SSW,195,3.0,3.0,11,0.00,,,0.00,Wunderground v.1.15,2013-11-07 04:12:00,
2013-11-06 20:18:00,54.6,1.0,30.29,SSW,197,3.0,4.0,11,0.00,,,0.00,Wunderground v.1.15,2013-11-07 04:18:00,
2013-11-06 20:23:00,53.9,0.5,30.29,SSW,211,3.0,4.0,11,0.00,,,0.00,Wunderground v.1.15,2013-11-07 04:23:00,
2013-11-06 20:29:00,52.3,1.1,30.29,SSW,204,4.0,4.0,12,0.00,,,0.00,Wunderground v.1.15,2013-11-07 04:29:00,
2013-11-06 20:34:00,51.0,1.8,30.29,SW,214,4.0,4.0,13,0.00,,,0.00,Wunderground v.1.15,2013-11-07 04:34:00,
2013-11-06 20:39:00,52.0,0.9,30.29,SW,224,4.0,4.0,12,0.00,,,0.00,Wunderground v.1.15,2013-11-07 04:39:00,
2013-11-06 20:44:00,52.4,1.2,30.29,SW,219,4.0,4.0,12,0.00,,,0.00,Wunderground v.1.15,2013-11-07 04:44:00,
2013-11-06 20:49:00,51.1,0.1,30.29,SSW,201,4.0,4.0,12,0.00,,,0.00,Wunderground v.1.15,2013-11-07 04:49:00,
2013-11-06 20:55:00,50.1,1.1,30.29,SSW,201,4.0,4.0,13,0.00,,,0.00,Wunderground v.1.15,2013-11-07 04:55:00,
2013-11-06 21:00:00,49.9,0.9,30.29,SW,218,4.0,4.0,13,0.00,,,0.00,Wunderground v.1.15,2013-11-07 05:00:00,
2013-11-06 21:01:00,49.9,0.9,30.29,SW,219,4.0,4.0,13,0.00,,,0.00,Wunderground v.1.15,2013-11-07 05:01:00,
2013-11-06 21:02:00,50.0,1.0,30.29,SW,217,4.0,4.0,13,0.00,,,0.00,Wunderground v.1.15,2013-11-07 05:02:00,
2013-11-06 21:03:00,50.2,1.1,30.29,SW,219,4.0,4.0,13,0.00,,,0.00,Wunderground v.1.15,2013-11-07 05:03:00,
2013-11-06 21:06:00,51.1,1.9,30.29,SSW,212,4.0,4.0,13,0.00,,,0.00,Wunderground v.1.15,2013-11-07 05:06:00,
2013-11-06 21:07:00,51.3,2.0,30.29,SSW,211,4.0,4.0,13,0.00,,,0.00,Wunderground v.1.15,2013-11-07 05:07:00,
2013-11-06 21:08:00,51.3,2.0,30.29,SW,218,4.0,4.0,13,0.00,,,0.00,Wunderground v.1.15,2013-11-07 05:08:00,
2013-11-06 21:09:00,51.4,2.1,30.29,SW,217,4.0,4.0,13,0.00,,,0.00,Wunderground v.1.15,2013-11-07 05:09:00,
2013-11-06 21:14:00,51.1,1.9,30.29,SSW,212,3.0,4.0,13,0.00,,,0.00,Wunderground v.1.15,2013-11-07 05:14:00,
2013-11-06 21:20:00,52.0,2.6,30.29,SW,236,4.0,4.0,13,0.00,,,0.00,Wunderground v.1.15,2013-11-07 05:20:00,
2013-11-06 21:25:00,53.8,2.3,30.29,WSW,239,4.0,4.0,12,0.00,,,0.00,Wunderground v.1.15,2013-11-07 05:25:00,
2013-11-06 21:30:00,54.5,1.0,30.29,SW,231,3.0,3.0,11,0.00,,,0.00,Wunderground v.1.15,2013-11-07 05:30:00,
2013-11-06 21:35:00,54.0,2.4,30.29,SW,219,3.0,4.0,12,0.00,,,0.00,Wunderground v.1.15,2013-11-07 05:35:00,
2013-11-06 21:40:00,53.6,2.1,30.29,SSW,200,3.0,3.0,12,0.00,,,0.00,Wunderground v.1.15,2013-11-07 05:40:00,
2013-11-06 21:45:00,53.2,1.8,30.29,SSW,201,3.0,4.0,12,0.00,,,0.00,Wunderground v.1.15,2013-11-07 05:45:00,
2013-11-06 21:51:00,53.8,2.3,30.29,SSW,205,3.0,3.0,12,0.00,,,0.00,Wunderground v.1.15,2013-11-07 05:51:00,
2013-11-06 21:56:00,54.0,2.4,30.28,SSW,202,2.0,3.0,12,0.00,,,0.00,Wunderground v.1.15,2013-11-07 05:56:00,
2013-11-06 22:01:00,53.9,2.4,30.28,SSW,207,3.0,3.0,12,0.00,,,0.00,Wunderground v.1.15,2013-11-07 06:01:00,
2013-11-06 22:06:00,53.4,2.0,30.28,SSW,204,3.0,4.0,12,0.00,,,0.00,Wunderground v.1.15,2013-11-07 06:06:00,
2013-11-06 22:11:00,50.8,1.6,30.28,SSW,193,4.0,4.0,13,0.00,,,0.00,Wunderground v.1.15,2013-11-07 06:11:00,
2013-11-06 22:16:00,49.8,2.4,30.28,SSW,204,4.0,6.0,14,0.00,,,0.00,Wunderground v.1.15,2013-11-07 06:16:00,
2013-11-06 22:21:00,50.3,2.8,30.28,SSW,203,4.0,4.0,14,0.00,,,0.00,Wunderground v.1.15,2013-11-07 06:21:00,
2013-11-06 22:26:00,50.5,3.0,30.28,SSW,198,4.0,4.0,14,0.00,,,0.00,Wunderground v.1.15,2013-11-07 06:26:00,
2013-11-06 22:32:00,50.7,3.1,30.28,SSW,211,4.0,4.0,14,0.00,,,0.00,Wunderground v.1.15,2013-11-07 06:32:00,
2013-11-06 22:37:00,52.1,2.7,30.28,SSW,211,3.0,4.0,13,0.00,,,0.00,Wunderground v.1.15,2013-11-07 06:37:00,
2013-11-06 22:43:00,53.2,1.8,30.28,SW,226,3.0,3.0,12,0.00,,,0.00,Wunderground v.1.15,2013-11-07 06:43:00,
2013-11-06 22:48:00,54.4,2.7,30.28,SW,224,3.0,3.0,12,0.00,,,0.00,Wunderground v.1.15,2013-11-07 06:48:00,
2013-11-06 22:54:00,54.1,2.5,30.28,SW,214,2.0,4.0,12,0.00,,,0.00,Wunderground v.1.15,2013-11-07 06:54:00,
2013-11-06 22:59:00,52.6,3.1,30.27,SSW,205,3.0,4.0,13,0.00,,,0.00,Wunderground v.1.15,2013-11-07 06:59:00,
2013-11-06 23:04:00,52.6,3.1,30.27,SSW,211,3.0,4.0,13,0.00,,,0.00,Wunderground v.1.15,2013-11-07 07:04:00,
2013-11-06 23:09:00,52.5,3.0,30.27,SW,221,3.0,4.0,13,0.00,,,0.00,Wunderground v.1.15,2013-11-07 07:09:00,
2013-11-06 23:14:00,52.0,2.6,30.26,SSW,204,3.0,3.0,13,0.00,,,0.00,Wunderground v.1.15,2013-11-07 07:14:00,
2013-11-06 23:20:00,52.0,2.6,30.26,SSW,198,3.0,4.0,13,0.00,,,0.00,Wunderground v.1.15,2013-11-07 07:20:00,
2013-11-06 23:25:00,51.2,3.5,30.26,SSW,204,4.0,5.0,14,0.00,,,0.00,Wunderground v.1.15,2013-11-07 07:25:00,
2013-11-06 23:30:00,50.7,3.1,30.26,SSW,200,4.0,4.0,14,0.00,,,0.00,Wunderground v.1.15,2013-11-07 07:30:00,
2013-11-06 23:35:00,50.2,4.2,30.26,SSW,201,4.0,5.0,15,0.00,,,0.00,Wunderground v.1.15,2013-11-07 07:35:00,
2013-11-06 23:40:00,49.9,4.0,30.26,SSW,197,4.0,4.0,15,0.00,,,0.00,Wunderground v.1.15,2013-11-07 07:40:00,
2013-11-06 23:46:00,50.0,4.1,30.25,SSW,201,4.0,4.0,15,0.00,,,0.00,Wunderground v.1.15,2013-11-07 07:46:00,
2013-11-06 23:51:00,50.4,4.4,30.25,South,188,3.0,4.0,15,0.00,,,0.00,Wunderground v.1.15,2013-11-07 07:51:00,
2013-11-06 23:57:00,50.8,4.7,30.25,SSW,208,3.0,4.0,15,0.00,,,0.00,Wunderground v.1.15,2013-11-07 07:57:00,